FW1436 Weather Reports


time (UTC)temp
C
wind
direction
speed
KPH
gust
KPH
rain 1hr
cm
rain 24hr
cm
rain mn
cm
humidity
%
barometer
mb
20260831110006 27 212 1.6 8.0 0.00 0.00 0.00 36 1014.9
20260831104505 27 95 1.6 6.4 0.00 0.00 0.00 37 1015.1
20260831103002 27 271 0.0 6.4 0.00 0.00 0.00 38 1015.2
20260831101616 26 96 3.2 9.7 0.00 0.00 0.00 37 1015.3
20260831100108 26 108 6.4 12.9 0.00 0.00 0.00 37 1015.3
20260831094559 25 78 4.8 16.1 0.00 0.00 0.00 36 1015.3
20260831093054 25 101 3.2 11.3 0.00 0.00 0.00 38 1015.2
20260831091550 25 83 1.6 6.4 0.00 0.00 0.00 43 1015.3
20260831090104 25 114 3.2 6.4 0.00 0.00 0.00 43 1015.2
20260831084547 23 98 1.6 8.0 0.00 0.00 0.00 44 1015.1
20260831083045 23 111 1.6 4.8 0.00 0.00 0.00 46 1015.0
20260831081547 22 116 1.6 9.7 0.00 0.00 0.00 47 1014.9
20260831080044 22 80 4.8 9.7 0.00 0.00 0.00 50 1015.0
20260831074541 21 83 1.6 6.4 0.00 0.00 0.00 53 1014.9
20260831073040 21 88 1.6 3.2 0.00 0.00 0.00 54 1015.0
20260831071539 20 99 0.0 0.0 0.00 0.00 0.00 58 1014.9
20260831070038 18 99 0.0 0.0 0.00 0.00 0.00 61 1014.7
20260831064538 19 101 0.0 0.0 0.00 0.00 0.00 62 1014.6
20260831063036 18 129 0.0 0.0 0.00 0.00 0.00 62 1014.7
20260831061527 -17 0.0 0.0 0.00 0.00 0.00 1014.6
20260831060021 -17 0.0 0.0 0.00 0.00 0.00 1014.7
20260831054517 -17 0.0 0.0 0.00 0.00 0.00 1014.6
20260831053013 -17 0.0 0.0 0.00 0.00 0.00 1014.5
20260831051521 -17 92 0.0 0.0 0.00 0.00 0.00 1014.5
20260831050006 17 94 0.0 0.0 0.00 0.00 0.00 66 1014.4
20260831044502 17 94 0.0 0.0 0.00 0.00 0.00 65 1014.3
20260831043001 17 94 0.0 1.6 0.00 0.00 0.00 64 1014.3
20260831041605 17 240 0.0 0.0 0.00 0.00 0.00 66 1014.2
20260831040056 18 240 0.0 1.6 0.00 0.00 0.00 64 1014.3
20260831034554 18 240 0.0 0.0 0.00 0.00 0.00 64 1014.2
20260831033053 18 240 0.0 1.6 0.00 0.00 0.00 61 1014.2
20260831031552 18 245 0.0 1.6 0.00 0.00 0.00 61 1014.2
20260831030108 18 247 0.0 1.6 0.00 0.00 0.00 60 1014.1
20260831024616 18 270 0.0 0.0 0.00 0.00 0.00 61 1014.0
20260831023049 18 270 0.0 0.0 0.00 0.00 0.00 60 1013.9
20260831021547 19 260 0.0 1.6 0.00 0.00 0.00 60 1013.9
20260831020046 19 255 1.6 4.8 0.00 0.00 0.00 60 1013.9
20260831014545 18 236 0.0 0.0 0.00 0.00 0.00 62 1014.0
20260831013059 18 236 0.0 0.0 0.00 0.00 0.00 62 1013.9
20260831011540 18 236 0.0 0.0 0.00 0.00 0.00 61 1013.9
20260831010038 19 236 0.0 0.0 0.00 0.00 0.00 59 1014.0
20260831004537 19 179 0.0 1.6 0.00 0.00 0.00 59 1014.1
20260831003032 20 116 0.0 1.6 0.00 0.00 0.00 58 1014.0
20260831001529 20 116 0.0 1.6 0.00 0.00 0.00 58 1013.8
20260831000029 20 13 0.0 0.0 0.00 0.00 0.00 59 1013.8
20260830234526 20 13 0.0 0.0 0.00 0.00 0.00 59 1013.8
20260830233025 21 300 0.0 0.0 0.00 0.00 0.00 58 1013.7
20260830231531 21 300 0.0 1.6 0.00 0.00 0.00 57 1013.6
20260830230024 21 300 0.0 0.0 0.00 0.00 0.00 58 1013.6
20260830224519 21 300 0.0 0.0 0.00 0.00 0.00 56 1013.4
20260830223016 22 264 0.0 1.6 0.00 0.00 0.00 54 1013.4
20260830221523 23 270 0.0 0.0 0.00 0.00 0.00 51 1013.3
20260830220010 23 270 0.0 3.2 0.00 0.00 0.00 51 1013.3
20260830214509 23 236 0.0 0.0 0.00 0.00 0.00 52 1013.3
20260830213008 24 236 0.0 0.0 0.00 0.00 0.00 49 1013.3
20260830211508 24 238 0.0 1.6 0.00 0.00 0.00 50 1013.2
20260830210007 24 98 0.0 1.6 0.00 0.00 0.00 49 1013.0
20260830204509 25 98 0.0 3.2 0.00 0.00 0.00 48 1012.9
20260830203020 25 276 0.0 1.6 0.00 0.00 0.00 47 1012.8
20260830201506 26 277 0.0 1.6 0.00 0.00 0.00 46 1012.8
20260830200005 26 269 0.0 6.4 0.00 0.00 0.00 45 1012.5
20260830194506 26 296 1.6 6.4 0.00 0.00 0.00 43 1012.3
20260830193004 27 285 0.0 6.4 0.00 0.00 0.00 40 1012.0
20260830191504 27 282 0.0 4.8 0.00 0.00 0.00 38 1011.9
20260830190007 28 221 1.6 9.7 0.00 0.00 0.00 36 1011.8
20260830184501 28 262 3.2 12.9 0.00 0.00 0.00 33 1011.7
20260830183001 29 258 3.2 12.9 0.00 0.00 0.00 31 1011.5
20260830181620 30 146 3.2 14.5 0.00 0.00 0.00 31 1011.5
20260830180104 30 164 3.2 17.7 0.00 0.00 0.00 30 1011.4
20260830180000 30 271 3.2 17.7 0.00 0.00 0.00 30 1011.4
20260830174608 31 241 3.2 16.1 0.00 0.00 0.00 30 1011.4
20260830173110 31 258 3.2 25.7 0.00 0.00 0.00 29 1011.4
20260830171600 31 224 1.6 16.1 0.00 0.00 0.00 29 1011.4
20260830170055 31 255 4.8 16.1 0.00 0.00 0.00 29 1011.4
20260830164612 31 278 3.2 19.3 0.00 0.00 0.00 29 1011.4
20260830163107 31 281 8.0 19.3 0.00 0.00 0.00 29 1011.3
20260830161553 31 240 6.4 19.3 0.00 0.00 0.00 29 1011.3
20260830160051 31 242 6.4 17.7 0.00 0.00 0.00 29 1011.4
20260830154553 32 210 6.4 24.1 0.00 0.00 0.00 29 1011.4
20260830153047 32 278 4.8 12.9 0.00 0.00 0.00 29 1011.4
20260830151547 31 98 3.2 19.3 0.00 0.00 0.00 30 1011.7
20260830150044 31 288 4.8 19.3 0.00 0.00 0.00 31 1011.8
20260830144552 31 236 3.2 12.9 0.00 0.00 0.00 30 1011.8
20260830143038 31 274 6.4 16.1 0.00 0.00 0.00 31 1012.1
20260830141535 31 158 4.8 24.1 0.00 0.00 0.00 31 1012.2
20260830140037 31 328 8.0 24.1 0.00 0.00 0.00 31 1012.4
20260830134532 31 309 6.4 19.3 0.00 0.00 0.00 31 1012.7
20260830133029 30 264 11.3 22.5 0.00 0.00 0.00 31 1012.6
20260830131526 30 228 4.8 16.1 0.00 0.00 0.00 33 1012.9
20260830130025 30 202 3.2 17.7 0.00 0.00 0.00 34 1013.1
20260830124522 29 265 6.4 20.9 0.00 0.00 0.00 34 1013.2
20260830123018 29 302 9.7 19.3 0.00 0.00 0.00 34 1013.4
20260830121517 28 263 8.0 22.5 0.00 0.00 0.00 35 1013.5
20260830120013 28 339 1.6 20.9 0.00 0.00 0.00 35 1013.6
20260830114512 28 167 4.8 12.9 0.00 0.00 0.00 36 1013.7
20260830111504 27 291 4.8 17.7 0.00 0.00 0.00 36 1014.1